Location: ???? ?????
(30.0052°N, 31.2891°E)
Time: 18:29:00
(UTC+00:00)

ACS3 Solar Sail - Pass Details

Date: 25 September 2024
Orbit: 961 x 1035 km, 97.4° (Epoch: 08 October)

Event Time Altitude Azimuth Distance (km) Brightness Sun altitude
Exits shadow 18:09:12 64° 12° (NNE) 1,139 2.0 -31.1°
Drops below altitude 10° 18:14:38 10° 352° (N) 2,841 4.5 -32.2°
Sets 18:17:09 0° 351° (N) 3,793 5.2 -32.7°
